Farmingdale, NY

11:40 PM EST on February 21, 2018 (GMT -0500)
Republic

Weather History for KFRG - July, 2013

Change the Weather History Date:

Thursday, July 25, 2013

  Actual Average Record
Temperature  
Mean Temperature 65 °F -  
Max Temperature 68 °F 80 °F 93 °F (1999)
Min Temperature 62 °F 65 °F 60 °F (1997)
Growing Degree Days 15 (Base 50)    
Moisture  
Dew Point 56 °F    
Average Humidity 77    
Maximum Humidity 94    
Minimum Humidity 61    
Precipitation  
Precipitation 0.06 in - - ()
Sea Level Pressure  
Sea Level Pressure 30.01 in    
Wind  
Wind Speed 13 mph (NNE)    
Max Wind Speed 17 mph    
Max Gust Speed 25 mph    
Visibility 10 miles    
Events Rain    
Averages and records for this station are not official NWS values.
T = Trace of Precipitation, MM = Missing Value Source: NWS Daily Summary

Daily Weather History Graph

Daily Weather History Graph

Search for Another Location

Airport or City:

Trip Planner

Search our weather history database for the weather conditions in past years. The results will help you decide how hot, cold, wet, or windy it might be!

Date:

Astronomy

Jul. 25, 2013 Rise Set
Actual Time 5:43 AM EDT 8:15 PM EDT
Civil Twilight 5:12 AM EDT 8:47 PM EDT
Nautical Twilight 4:33 AM EDT 9:26 PM EDT
Astronomical Twilight 3:49 AM EDT 10:09 PM EDT
Moon 9:53 PM EDT (7/25) 9:11 AM EDT (7/25)
Length of Visible Light 15h 34m
Length of Day
14h 31m
Waning Gibbous, 88% of the Moon is Illuminated
Jul 25
Waning Gibbous
Jul 29
Last Quarter
Aug 6
New
Aug 14
First Quarter
Aug 20
Full

Hourly Weather History & Observations

Time (EDT) Temp. Dew Point Humidity Pressure Visibility Wind Dir Wind Speed Gust Speed Precip Events Conditions
12:53 AM 68.0 °F 54.0 °F 61% 29.92 in 10.0 mi North 16.1 mph - N/A   Mostly Cloudy
1:53 AM 66.9 °F 54.0 °F 63% 29.93 in 10.0 mi NNE 12.7 mph 20.7 mph N/A   Overcast
2:53 AM 66.0 °F 54.0 °F 65% 29.92 in 10.0 mi NNE 17.3 mph - N/A   Overcast
3:53 AM 66.0 °F 55.0 °F 68% 29.92 in 10.0 mi NNE 13.8 mph 21.9 mph N/A   Overcast
4:53 AM 64.9 °F 55.0 °F 70% 29.94 in 10.0 mi NNE 12.7 mph 24.2 mph N/A   Overcast
5:53 AM 64.0 °F 54.0 °F 70% 29.96 in 10.0 mi NNE 15.0 mph 19.6 mph N/A   Overcast
6:53 AM 63.0 °F 53.1 °F 70% 29.96 in 10.0 mi NNE 9.2 mph - N/A   Overcast
7:51 AM 62.6 °F 51.8 °F 68% 30.00 in 10.0 mi NE 13.8 mph 21.9 mph N/A   Overcast
7:53 AM 63.0 °F 51.1 °F 65% 30.00 in 10.0 mi NNE 13.8 mph 21.9 mph N/A   Overcast
8:53 AM 63.0 °F 52.0 °F 67% 30.01 in 10.0 mi NNE 12.7 mph - N/A   Overcast
9:53 AM 63.0 °F 53.1 °F 70% 30.02 in 10.0 mi NE 12.7 mph 21.9 mph N/A   Overcast
10:53 AM 63.0 °F 53.1 °F 70% 30.02 in 10.0 mi NE 15.0 mph 21.9 mph N/A   Overcast
11:53 AM 63.0 °F 54.0 °F 72% 30.05 in 10.0 mi NE 13.8 mph - N/A   Overcast
12:53 PM 62.1 °F 55.0 °F 78% 30.05 in 10.0 mi NE 13.8 mph 21.9 mph 0.00 in   Overcast
1:53 PM 64.0 °F 55.9 °F 75% 30.03 in 10.0 mi NE 13.8 mph 25.3 mph N/A   Overcast
2:53 PM 63.0 °F 55.9 °F 78% 30.04 in 10.0 mi NNE 10.4 mph 19.6 mph N/A   Overcast
3:53 PM 62.1 °F 57.9 °F 86% 30.04 in 10.0 mi NE 10.4 mph 18.4 mph 0.00 in   Overcast
4:53 PM 64.0 °F 57.9 °F 80% 30.03 in 10.0 mi NE 9.2 mph - N/A   Overcast
5:29 PM 64.4 °F 57.2 °F 77% 30.03 in 10.0 mi NNE 11.5 mph - N/A   Overcast
5:53 PM 64.0 °F 57.9 °F 80% 30.04 in 10.0 mi NNE 13.8 mph - N/A   Overcast
6:53 PM 63.0 °F 59.0 °F 87% 30.04 in 10.0 mi NE 8.1 mph - 0.01 in Rain Light Rain
7:53 PM 62.1 °F 60.1 °F 93% 30.04 in 10.0 mi NNE 8.1 mph - 0.00 in   Overcast
8:35 PM 62.6 °F 60.8 °F 94% 30.04 in 10.0 mi NNE 9.2 mph - N/A   Overcast
8:53 PM 62.1 °F 60.1 °F 93% 30.04 in 10.0 mi NNE 6.9 mph - N/A   Overcast
9:53 PM 62.1 °F 60.1 °F 93% 30.03 in 10.0 mi NNE 10.4 mph - 0.01 in Rain Light Rain
10:53 PM 62.1 °F 60.1 °F 93% 30.03 in 10.0 mi NNE 10.4 mph - 0.02 in Rain Light Rain
11:53 PM 62.1 °F 60.1 °F 93% 30.04 in 10.0 mi NE 5.8 mph - 0.02 in   Overcast